Weather History for Waco, TX

Change the Weather History Date:

Wednesday, July 3, 2013

  Actual Average Record
Temperature  
Mean Temperature 77 °F 84 °F  
Max Temperature 95 °F 95 °F 104 °F (1990)
Min Temperature 58 °F 73 °F 58 °F (2013)
Degree Days  
Heating Degree Days 0 0  
Month to date heating degree days 0 0  
Since 1 June heating degree days 0 0  
Since 1 July heating degree days 0 0  
Cooling Degree Days 12 19  
Month to date cooling degree days 36 57  
Year to date cooling degree days 1005 997  
Since 1 June cooling degree days 588 545  
Growing Degree Days 26 (Base 50)    
Moisture  
Dew Point 49 °F    
Average Humidity 46    
Maximum Humidity 72    
Minimum Humidity 20    
Precipitation  
Precipitation 0.00 in 0.06 in 2.97 in (1976)
Month to date precipitation 0.00 0.20  
Year to date precipitation 15.71 18.52  
Sea Level Pressure  
Sea Level Pressure 29.99 in    
Wind  
Wind Speed 4 mph (NNE)    
Max Wind Speed 14 mph    
Max Gust Speed 24 mph    
Visibility 10 miles    
Events      
T = Trace of Precipitation, MM = Missing Value Source: NWS Daily Summary

Daily Weather History Graph

Daily Weather History Graph

Search for Another Location

Airport:

Trip Planner

Search our weather history database for the weather conditions in past years. The results will help you decide how hot, cold, wet, or windy it might be!

Date:

Astronomy

Jul. 03, 2013 Rise Set
Actual Time 6:28 AM CDT 8:37 PM CDT
Civil Twilight 6:00 AM CDT 9:05 PM CDT
Nautical Twilight 5:26 AM CDT 9:39 PM CDT
Astronomical Twilight 4:49 AM CDT 10:16 PM CDT
Moon 2:59 AM CDT (7/3) 4:55 PM CDT (7/3)
Length of Visible Light 15h 05m
Length of Day
14h 09m
Waning Crescent, 18% of the Moon is Illuminated
Jul 3
Waning Crescent
Jul 8
New
Jul 15
First Quarter
Jul 22
Full
Jul 29
Last Quarter

Hourly Weather History & Observations

Time (CDT) Temp. Heat Index Dew Point Humidity Pressure Visibility Wind Dir Wind Speed Gust Speed Precip Events Conditions
12:51 AM 61.0 °F - 51.1 °F 70% 30.04 in 10.0 mi Calm Calm - N/A   Clear
1:51 AM 62.1 °F - 50.0 °F 65% 30.03 in 10.0 mi Calm Calm - N/A   Clear
2:51 AM 61.0 °F - 51.1 °F 70% 30.02 in 10.0 mi Calm Calm - N/A   Clear
3:51 AM 60.1 °F - 50.0 °F 69% 30.02 in 10.0 mi Calm Calm - N/A   Clear
4:51 AM 59.0 °F - 50.0 °F 72% 30.01 in 10.0 mi WNW 3.5 mph - N/A   Clear
5:51 AM 59.0 °F - 50.0 °F 72% 30.01 in 10.0 mi NW 3.5 mph - N/A   Clear
6:51 AM 60.1 °F - 48.9 °F 67% 30.02 in 10.0 mi North 3.5 mph - N/A   Clear
7:51 AM 69.1 °F - 50.0 °F 51% 30.03 in 10.0 mi NNW 3.5 mph - N/A   Clear
8:51 AM 75.0 °F - 52.0 °F 44% 30.04 in 10.0 mi North 3.5 mph - 0.01 in   Clear
9:51 AM 81.0 °F 81.0 °F 57.0 °F 44% 30.04 in 10.0 mi Calm Calm - N/A   Clear
10:51 AM 86.0 °F 84.9 °F 57.0 °F 37% 30.03 in 10.0 mi Calm Calm - N/A   Clear
11:51 AM 88.0 °F - 50.0 °F 27% 30.02 in 10.0 mi Variable 4.6 mph - N/A   Scattered Clouds
12:51 PM 89.1 °F - 46.0 °F 22% 30.02 in 10.0 mi Variable 5.8 mph - N/A   Partly Cloudy
1:51 PM 91.9 °F - 45.0 °F 20% 29.99 in 10.0 mi NNE 5.8 mph - N/A   Clear
2:51 PM 91.0 °F - 48.0 °F 23% 29.97 in 10.0 mi East 5.8 mph - N/A   Scattered Clouds
3:51 PM 90.0 °F - 46.9 °F 23% 29.95 in 10.0 mi ENE 13.8 mph 18.4 mph N/A   Mostly Cloudy
4:03 PM 89.6 °F - 46.4 °F 22% 29.97 in 10.0 mi North 5.8 mph - N/A   Scattered Clouds
4:51 PM 91.0 °F - 44.1 °F 20% 29.93 in 10.0 mi North 5.8 mph - N/A   Partly Cloudy
5:51 PM 93.0 °F - 46.0 °F 20% 29.91 in 10.0 mi East 5.8 mph - N/A   Overcast
6:51 PM 91.9 °F - 46.0 °F 21% 29.90 in 10.0 mi ESE 4.6 mph - N/A   Clear
7:51 PM 88.0 °F - 48.0 °F 25% 29.90 in 10.0 mi ENE 3.5 mph - N/A   Clear
8:51 PM 81.0 °F - 50.0 °F 34% 29.91 in 10.0 mi North 3.5 mph - N/A   Partly Cloudy
9:51 PM 77.0 °F - 50.0 °F 39% 29.93 in 10.0 mi North 4.6 mph - N/A   Scattered Clouds
10:51 PM 73.0 °F - 51.1 °F 46% 29.94 in 10.0 mi North 4.6 mph - N/A   Clear
11:51 PM 75.9 °F - 53.1 °F 45% 29.96 in 10.0 mi East 3.5 mph - N/A   Clear